DECAYED

STARLINK-5560, 55749 (Decayed)

Orbit data source: Space-Track

STARLINK-5560, 55749 was a payload satellite owned by SpaceX/Seattle (US) in LEO that was launched on Fri, 03 Mar 2023 UTC via an FALCON 9 launch vehicle from the Air Force Western Test Range (AFWTR). Payload-class satellites include a variety of spacecraft equipped with specific instruments for various scientific and technological missions. These include communications satellites like Starlink; space stations such as the ISS; scientific satellites like the Hubble; Earth observation satellites from companies like Planet Labs, Umbra, and HawkEye 360; GPS; miniature CubeSats for education and research; and military/defense satellites.

Not visible in the next 10 days
Identifier
55749, 2023-028J
Orbit
Decayed
Country
Flag of USUS
Related business
Manufacturer
SpaceX/Seattle
Mission
Decayed Commercial Communications
Bus & Motor
STARLINK, Unknown motor
Mass
305 kg wet, ~290 kg dry
Launch date (UTC)
2023-03-03 (3 years ago)
Launch vehicle
FALCON 9
Launch site
Air Force Western Test Range (AFWTR)
Object type
Payload
Rocket body
Debris
Shape & HBR
Box + 1 Pan, 10.1 m
Radar Cross Section
11.087 m², Large (>1 m²)

Expand to show TLE details & history
Last TLE update: 11 months ago

TLE from 11 months ago
0 STARLINK-5560
1 55749U 23028J   25188.90170438  .24789742  45349-5  14842-3 0  9996
2 55749  69.9691 120.2006 0010466 247.3202 228.2759 16.54083715129883
Epoch: 2025-07-07T21:38Z
TLE epoch observation values (Epoch: 2025-07-07T21:38:27.258Z)
Latitude
58.11213°
Longitude
13.84778°
Altitude
142.342 km
Speed
7.824 km/s
True Right ascension
17h 38m 15s
True Declination
57° 56' 35"
Sunlit
Object was in daylight at epoch
Visualization orbit readout
Latitude
Unknown
Longitude
Unknown
Altitude
Unknown
Speed
Unknown
Apparent Right ascension
Unknown
Apparent Declination
Unknown
Sunlit
N/A
Visualization observer readout
Local Sidereal Time
21:30:03
Azimuth
Unknown
Elevation
Unknown
Doppler factor
Unknown
Orbital elements
Apogee altitude
133.223 km
Perigee altitude
119.608 km
Semi-major axis
6,504.552 km
Eccentricity
0.00105
Inclination
69.9691°
RAAN
120.2006°
Arg. of periapsis
247.3202°
True anomaly
228.18647°
Mean anomaly
228.2759°
Eccentric anomaly
228.23118°
Mean motion
4.1373 °/min
Orbital period
87.01 mins
BSTAR
0.00014842
Loading maneuver chart data...
Computing Atmospheric mass density...
Loading historical data...
Loading historical data...
Loading historical data...
Loading historical data...
Loading historical data...
Loading historical data...
Loading historical data...

Documentation

Showing up to 5 results
|